Terug naar catalogus

COSMOS 2251 DEB

ActiefLEO
NORAD 35883·DEBRIS·🇷🇺 Russia

Gelanceerd Jun 16, 1993 vanaf Plesetsk Cosmodrome

Loading…

Volgende Passages (komende 24 uur)

TLE

VerouderendSource: Space-Track

Epoch: Sep 12, 2026, 08:15 UTC

1 35883U 93036ATW 26255.34382472  .00000521  00000-0  13302-3 0  9991
2 35883  74.0212 275.0606 0083826 335.0753  37.3379 14.51079346663540

Volg COSMOS 2251 DEB in realtime met AllMySat

Download on the App Store